Location: NCO
(38.4404°N, 77.1340°W)
Time: 12:40:16
(UTC-05:00)

Tiangong 2 - Visible Passes

Search period start: 16 November 2018 00:00
Search period end: 26 November 2018 00:00
Orbit: 382 x 393 km, 42.8° (Epoch: 16 November)

Date Brightness Start Highest point End Pass type
(mag) Time Alt. Az. Time Alt. Az. Time Alt. Az.
21 Nov 4.6 06:20:02 10° SSE 06:20:53 11° SE 06:21:44 10° SE visible
23 Nov 3.7 05:57:47 10° SSW 06:00:14 20° SE 06:02:43 10° E visible
24 Nov 4.2 05:00:46 10° SSE 05:01:51 11° SE 05:02:56 10° ESE visible
25 Nov 2.4 05:37:18 14° SW 05:39:40 38° SSE 05:42:40 10° E visible
